Regional Weather Roundup
Issued by NWS

Home | Current Version | Previous Version | Graphics & Text | Print | Product List | Glossary On
Versions: 1 2 3 4 5 6 7 8 9 10 11 12 13 14 15 16 17 18 19 20 21 22 23 24 25 26 27 28 29 30 31 32 33 34 35 36 37 38 39 40 41 42 43 44 45 46 47 48 49 50
000
ASUS43 KMPX 070501
RWRMN
WEATHER ROUNDUP FOR MINNESOTA
NATIONAL WEATHER SERVICE TWIN CITIES/CHANHASSEN MN
1200 AM CDT TUE JUL 07 2015


NOTE: "FAIR" INDICATES FEW OR NO CLOUDS BELOW 12,000 FEET WITH NO
SIGNIFICANT WEATHER AND/OR OBSTRUCTIONS TO VISIBILITY. N/A MEANS
CURRENT SKY AND/OR WEATHER CONDITIONS ARE NOT AVAILABLE.

MNZ060>063-068>070-070600-
   Twin Cities Metro

CITY           SKY/WX    TMP DP  RH WIND       PRES   REMARKS
TWIN CITIES    PTCLDY    60  48  64 N13       30.05R
ST PAUL        CLEAR     59  48  67 N9        30.05R
CRYSTAL        CLEAR     59  49  69 N7        30.04S
BLAINE         CLEAR     57  52  82 NW5       30.05R
LAKEVILLE      CLEAR     57  48  72 N8        30.05R
EDEN PRAIRIE   CLEAR     59  49  69 N5        30.05R
SOUTH ST PAUL  CLEAR     60  47  61 N9        30.05R
LAKE ELMO      FAIR      57  50  77 NW5       30.06R
$$
MNZ001>005-007-008-013>017-022>024-027-028-070600-
   Northwest Minnesota

CITY           SKY/WX    TMP DP  RH WIND       PRES   REMARKS
BEMIDJI        CLEAR     49  46  90 NW5       30.13R
HALLOCK        CLEAR     52  48  87 NW3       30.14R
ROSEAU         CLEAR     52  45  76 W6        30.12S
WARROAD        CLEAR     52  45  76 W5        30.12R
THIEF RVR FALL CLEAR     50  46  87 CALM      30.14S
CROOKSTON      CLEAR     50  48  93 NW3       30.16R
FOSSTON        CLEAR     46  43  87 CALM      30.15S
DETROIT LAKES  PTCLDY    52  45  76 NW5       30.15S
MOORHEAD       CLEAR     48  45  87 N3        30.16S
PARK RAPIDS    CLOUDY    54  47  77 NW6       30.13R
MAHNOMEN       FAIR      49  45  86 CALM      30.14S
$$
MNZ006-009>011-018-025>026-070600-
   North Central Minnesota

CITY           SKY/WX    TMP DP  RH WIND       PRES   REMARKS
BAUDETTE       CLEAR     49  46  90 W5        30.10R
FLAG ISLAND    CLEAR     57  45  62 W9        30.09R
INTL FALLS     CLOUDY    48  45  89 CALM      30.09R
WASKISH        MOCLDY    55  46  71 NW5       30.12R
BIG FORK       CLEAR     46  45  93 CALM      30.11R
LONGVILLE      MOCLDY    55  46  71 CALM      30.10S
GRAND RAPIDS   CLOUDY    55  41  58 N8        30.10R
CRANE LAKE     CLOUDY    54  43  66 N6        30.09R
COOK           CLOUDY    54  45  71 CALM      30.09R
WALKER         FAIR      54  46  74 NW3       30.12R
$$
MNZ012-019>021-037-070600-
   Northeast Minnesota

CITY           SKY/WX    TMP DP  RH WIND       PRES   REMARKS
DULUTH         MOCLDY    56  45  66 N8        30.04F
ELY            CLOUDY    52  43  71 N7        30.06S
HIBBING        CLOUDY    54  44  69 NW9       30.08R
DULUTH HARBOR    N/A     61  48  63 N13       30.05S
TWO HARBORS    CLOUDY    55  48  76 CALM      30.03S
SILVER BAY     CLOUDY    54  46  76 CALM      30.02S
GRAND MARAIS     N/A     49  47  93 NW3       30.01S
G MARAIS ARPRT MOCLDY    48  41  76 CALM      30.02S
$$
MNZ029>031-032-039>041-046>048-054>057-064-070600-
   West Central Minnesota

CITY           SKY/WX    TMP DP  RH WIND       PRES   REMARKS
FERGUS FALLS   CLEAR     52  45  76 CALM      30.15S
WHEATON        CLEAR     52  46  82 N3        30.17R
MORRIS         CLEAR     54  48  82 NW6       30.12F
ALEXANDRIA     CLEAR     54  44  69 N6        30.13S
ELBOW LAKE     FAIR      53  47  81 N5        30.14R
WADENA         PTCLDY    48  43  81 NW6       30.12S
GLENWOOD       CLEAR     52  46  82 N5        30.12S
APPLETON       CLEAR     54  48  82 N5        30.13S
BENSON         CLEAR     52  46  82 N3        30.12F
ORTONVILLE     CLEAR     54  48  82 N7        30.14S
MADISON        CLEAR     54  48  82 N7        30.14R
WILLMAR        FAIR      55  48  76 N8        30.12S
$$
MNZ033>034-036-042>043-049>051-058-059-070600-
   Central Minnesota

CITY           SKY/WX    TMP DP  RH WIND       PRES   REMARKS
ST CLOUD       CLEAR     55  46  71 NW7       30.07F
SAUK CENTRE    FAIR      52  46  79 NW3       30.11S
PAYNESVILLE    CLEAR     49  46  91 W5        30.11R
AITKIN         MOCLDY    54  46  76 NW3       30.07S
PINE RIVER     CLOUDY    57  48  72 NW5       30.13S
BRAINERD       CLOUDY    57  47  69 NW8       30.09F
STAPLES        CLEAR     48  45  87 NW6       30.11S
LONG PRAIRIE   FAIR      50  45  81 NW3       30.11S
LITTLE FALLS   MOCLDY    54  45  71 NW3       30.09F
LITCHFIELD     CLEAR     55  48  76 N7        30.10R
BUFFALO        CLEAR     56  47  71 NW6       30.08R
MAPLE LAKE     CLEAR     56  49  78 NW3       30.09R
$$
MNZ037-044-045-052-053-070600-
   East Central Minnesota

CITY           SKY/WX    TMP DP  RH WIND       PRES   REMARKS
PRINCETON      CLEAR     57  48  72 NW6       30.07R
MORA           CLEAR     54  45  71 CALM      30.07S
CAMBRIDGE      CLEAR     57  46  67 N6        30.04S
MOOSE LAKE     CLOUDY    55  46  71 CALM      30.04S
HINCKLEY       FAIR      54  48  82 NW6       30.06R
CLOQUET        CLOUDY    55  45  67 NW10      30.06S
MCGREGOR       MOCLDY    54  46  76 NW6       30.08S
$$
MNZ071>073-080-081-089-090-097-098-070600-
   Southwest Minnesota

CITY           SKY/WX    TMP DP  RH WIND       PRES   REMARKS
GRANITE FALLS  CLEAR     53  49  86 NW3       30.13S
CANBY          CLEAR     53  49  88 NW6       30.15S
MARSHALL       CLEAR     55  46  71 N8        30.11S
REDWOOD FALLS  CLEAR     56  48  74 N7        30.10R
OLIVIA         CLEAR     52  46  82 N7        30.10R
PIPESTONE      CLEAR     55  52  88 N5        30.13S
WINDOM         CLEAR     54  48  82 N7        30.10S
WORTHINGTON    CLEAR     54  46  76 N7        30.11S
JACKSON        CLEAR     55  50  82 N6        30.10R
TRACY          CLEAR     56  51  82 N10       30.12R
SLAYTON        CLEAR     55  51  87 N8        30.13R
$$
MNZ065>067-074>077-082>085-091>093-070600-
   South Central Minnesota

CITY           SKY/WX    TMP DP  RH WIND       PRES   REMARKS
MANKATO        CLEAR     57  46  67 N10       30.06S
NEW ULM        CLEAR     55  46  71 NW6       30.09R
ST JAMES       CLEAR     57  52  82 NW7       30.10R
FAIRMONT       CLEAR     57  46  67 N8        30.07R
GLENCOE        CLEAR     56  50  80 NW7       30.07S
FARIBAULT      CLEAR     57  52  82 NW8       30.05R
OWATONNA       PTCLDY    61  52  72 N12       30.04S
WASECA         CLEAR     55  50  82 N8        30.06S
ALBERT LEA     CLEAR     61  54  77 N10G16    30.03S
$$
MNZ078>079-086>088-094>096-070600-
   Southeast Minnesota

CITY           SKY/WX    TMP DP  RH WIND       PRES   REMARKS
ROCHESTER      MOCLDY    60  54  80 N15       30.01F
RED WING       MOCLDY    61  48  63 N7        30.01R
DODGE CENTER   PTCLDY    61  54  77 N9        30.03S
WINONA         CLOUDY    61  59  94 CALM      29.98S FOG
AUSTIN         MOCLDY    63  55  77 N10       30.01S
PRESTON          N/A     57  55  91 N3        29.99F FOG
$$
ABBREVIATIONS USED IN REMARKS
   TC - TEMPERATURES IN CELSIUS
  WCI - WIND CHILL INDEX
   HX - HEAT INDEX
  VSB - VISIBILITY
$$


USA.gov is the U.S. government's official web portal to all federal, state and local government web resources and services.